GFSFLT2_prec_cloud_042.txt.gz
Cloud_Cover
100 100 100 100 100 100 100 100 100 96 97 100 100 100 100 100 100 100 100 93 90 5 24 36 5 4 0 0 0 0 1 0
100 100 100 100 100 100 100 100 100 100 100 100 100 100 100 100 100 97 17 16 43 5 5 39 5 1 0 1 1 0 1 0
100 100 100 100 100 100 100 100 100 100 100 100 100 100 100 100 100 93 79 5 5 4 3 5 0 0 1 0 0 0 5 3
100 100 100 100 100 100 100 100 100 100 100 100 100 100 100 100 87 76 19 5 4 0 4 0 0 1 0 0 0 0 0 5
100 100 100 100 100 100 100 100 100 100 100 100 100 100 84 16 5 5 5 0 1 0 0 3 0 0 0 0 0 0 0 0
100 100 100 100 100 100 100 100 100 100 100 100 100 100 94 98 94 8 13 3 0 0 0 4 0 0 0 0 0 0 0 0
100 100 100 100 100 100 100 100 100 100 100 100 100 99 100 98 100 100 100 11 74 41 22 32 16 4 0 0 0 0 0 0
100 89 100 100 100 100 100 98 100 100 100 100 100 100 100 48 66 100 76 78 70 96 100 100 13 5 4 2 3 1 0 0
90 100 100 100 100 81 99 100 100 100 100 100 100 93 63 88 92 99 98 99 100 100 100 11 1 5 2 5 5 5 5 0
99 99 100 100 100 100 100 100 100 100 100 100 100 100 100 100 100 100 100 100 100 99 84 100 14 5 5 15 70 24 5 5
89 100 100 100 100 100 100 100 100 100 100 100 100 100 100 100 100 100 100 100 100 100 95 100 2 4 9 5 5 5 5 5
100 100 100 100 100 100 100 100 100 100 100 100 100 100 100 100 100 100 100 100 100 100 100 59 31 70 83 89 99 86 77 48
100 100 94 100 100 85 100 100 100 100 100 100 100 100 100 100 100 100 100 2 2 5 2 5 5 5 5 4 0 0 6 6
68 66 35 5 5 5 5 60 96 97 91 34 7 92 91 88 19 63 11 4 22 99 100 100 92 11 5 3 1 3 0 67
12 27 17 5 16 52 20 84 100 100 100 100 100 100 100 95 11 5 5 74 100 100 100 84 4 3 12 53 7 2 4 12
5 5 5 24 75 54 57 45 64 6 5 5 5 2 0 0 5 5 12 96 100 53 6 5 5 5 18 86 96 98 69 43
77 89 93 95 56 8 60 38 5 5 5 5 5 1 3 5 5 5 41 6 5 5 12 6 20 90 84 88 42 66 76 100
89 11 84 55 5 5 9 34 40 5 5 65 5 3 4 5 5 5 5 5 5 5 5 5 38 42 95 100 74 98 100 100
5 5 5 33 26 7 59 31 9 36 83 55 5 3 5 5 4 5 5 5 5 5 53 89 91 97 100 83 74 60 100 100
5 5 5 5 5 51 23 91 61 92 43 5 5 5 5 5 5 5 5 5 5 6 16 67 99 84 72 98 85 100 100 100

GFSFLT2_prec_cloud_045.txt.gz
Cloud_Cover
100 100 100 100 100 100 100 100 100 100 100 98 58 74 82 100 100 100 99 100 100 69 95 68 5 22 5 0 3 0 0 0
100 100 100 100 100 100 100 100 100 100 100 100 100 100 100 100 100 100 100 100 100 99 53 94 6 5 2 0 0 0 0 0
100 100 100 100 100 100 100 100 100 100 100 100 100 100 100 100 100 100 100 100 100 99 5 11 5 5 0 0 0 0 0 0
100 100 100 100 100 100 100 100 100 100 100 100 100 100 100 100 100 100 88 100 53 5 5 5 2 8 9 0 0 0 5 26
100 100 100 100 100 100 100 100 100 100 100 100 100 100 100 100 100 100 100 61 19 7 31 6 5 0 0 0 1 4 17 0
100 100 100 100 100 100 100 100 100 100 100 100 100 100 100 100 82 100 79 73 45 37 45 5 5 89 52 98 100 82 0 0
100 100 100 100 100 100 100 100 100 100 100 100 100 100 100 100 100 100 92 87 77 60 24 5 5 51 100 100 92 61 2 1
100 100 100 100 100 100 100 100 100 100 100 100 100 100 100 100 100 100 100 85 73 34 97 100 100 99 100 58 82 24 70 5
100 100 100 100 100 82 100 100 100 99 100 100 99 100 100 100 100 100 100 100 100 96 100 100 100 100 81 100 100 83 12 5
98 99 100 100 100 100 100 100 100 100 100 100 100 100 100 100 100 100 100 100 100 100 100 92 80 81 63 100 98 93 1 0
95 84 100 100 100 100 100 100 100 100 100 100 100 100 100 100 100 100 100 100 98 100 100 94 40 100 100 64 36 5 10 30
100 100 100 100 100 96 100 100 100 100 100 100 100 100 100 100 99 100 100 100 100 100 4 18 27 6 0 2 4 4 4 5
100 92 82 28 7 52 99 100 100 100 98 100 76 76 96 95 100 100 100 82 100 90 4 6 53 49 10 13 62 97 28 4
100 89 100 92 97 14 6 30 65 84 72 53 17 14 7 5 90 10 4 5 5 28 100 100 100 100 99 50 7 3 5 3
100 99 7 17 5 5 10 54 56 59 59 52 41 17 5 5 1 2 5 5 11 29 89 87 44 37 5 29 37 48 30 42
42 5 5 5 5 5 33 12 39 65 13 5 5 5 5 5 0 0 5 5 5 5 5 5 8 75 21 94 41 90 87 56
5 5 5 5 5 6 16 17 31 13 40 5 7 10 12 5 5 5 5 5 5 5 5 18 89 98 100 100 95 93 97 93
5 5 5 3 4 5 5 6 7 11 36 78 84 14 5 7 5 5 24 5 5 5 5 9 97 78 63 79 93 84 91 94
5 5 15 6 16 8 5 5 5 5 32 78 98 77 50 33 5 5 5 5 5 5 3 7 76 73 88 85 100 82 89 95
5 28 97 88 56 6 5 5 38 7 64 97 92 88 91 12 5 5 5 5 5 5 5 90 99 82 73 100 86 86 91 98

GFSFLT2_prec_cloud_051.txt.gz
Cloud_Cover
100 100 100 100 100 100 100 100 100 100 100 100 100 98 100 100 100 100 100 100 100 86 99 100 100 100 100 100 72 16 16 5
100 100 100 100 100 100 100 100 100 100 100 100 100 100 100 100 100 100 100 100 100 100 100 94 100 100 21 9 100 6 2 15
100 100 100 100 100 100 100 100 100 100 100 100 100 100 100 100 100 100 100 100 100 67 100 100 100 100 100 50 44 67 5 4
100 100 100 100 100 100 100 100 100 100 100 100 100 100 100 100 100 100 100 95 75 100 100 95 72 44 95 77 59 5 9 5
100 100 100 100 100 100 100 100 100 100 100 100 100 100 100 100 100 100 100 100 100 100 100 100 98 84 55 8 5 0 3 0
100 100 100 100 100 100 100 100 100 100 100 100 100 100 100 100 100 100 100 100 100 100 100 100 56 3 3 4 5 5 13 11
100 100 100 100 100 100 100 100 100 100 100 100 100 100 96 100 100 100 100 100 100 100 100 70 80 64 99 100 99 99 100 90
100 100 100 100 100 100 100 100 100 100 100 100 100 100 98 100 100 100 85 93 100 79 97 97 33 80 100 80 100 100 100 100
100 100 100 100 100 100 100 100 100 100 100 100 100 100 100 100 100 69 95 100 80 89 95 94 94 98 100 97 1 14 100 51
100 100 100 100 100 100 100 100 100 100 100 98 90 100 100 100 99 68 90 98 100 78 15 1 5 3 1 0 0 0 0 0
100 100 100 100 100 96 100 100 100 100 91 100 100 93 78 6 5 5 5 40 57 2 0 4 0 0 0 0 0 0 0 0
100 100 100 100 90 100 66 89 100 92 86 99 73 38 10 5 5 5 4 0 0 0 0 0 0 0 0 0 0 0 0 0
100 75 100 100 100 100 100 100 100 100 100 29 5 5 5 2 0 0 0 0 0 2 0 0 5 0 0 0 0 0 0 0
100 100 100 100 99 66 57 98 72 6 52 16 3 4 5 5 5 3 5 5 5 5 5 4 0 0 0 0 0 0 0 0
100 100 100 100 100 100 59 55 42 17 1 0 5 5 5 5 3 1 0 2 5 5 1 0 0 0 0 0 2 1 5 5
59 93 20 16 7 15 16 2 0 0 0 2 0 0 0 0 0 0 4 5 5 0 0 0 0 0 0 0 0 2 5 5
11 5 5 5 1 47 2 1 0 0 0 3 12 33 76 6 5 5 5 1 4 5 5 5 0 0 5 5 5 5 5 5
1 0 0 4 66 5 5 0 0 14 86 97 100 71 51 5 5 5 5 0 0 3 4 4 5 5 5 5 4 5 8 82
0 1 0 10 5 5 5 1 1 9 13 16 92 99 38 60 76 7 5 5 5 5 5 6 47 5 2 4 11 78 81 18
31 100 0 4 3 5 5 5 20 56 91 100 72 71 100 100 100 26 5 5 5 5 6 43 55 5 5 5 9 53 100 97

GFSFLT2_prec_cloud_057.txt.gz
Cloud_Cover
100 100 100 100 100 100 100 100 100 100 100 100 100 100 100 100 100 100 100 100 50 67 44 98 34 94 100 100 100 100 52 5
100 100 100 100 100 100 100 100 100 100 100 100 100 100 100 100 100 100 100 100 100 100 100 100 100 96 65 6 5 68 80 19
100 100 100 100 100 100 100 100 100 100 100 100 100 100 93 100 100 100 100 100 100 100 100 96 97 72 90 33 5 7 13 49
100 100 100 100 100 100 100 100 100 100 100 100 93 100 100 100 94 100 100 100 99 38 77 80 86 61 100 98 98 70 72 94
100 100 100 100 100 100 100 100 100 100 100 100 100 100 100 100 100 100 100 100 97 98 100 100 100 98 100 100 100 100 55 6
100 100 100 100 100 100 100 100 100 100 100 100 100 100 100 100 94 98 100 100 86 100 100 100 100 100 100 100 70 4 5 11
100 100 100 100 100 100 100 100 100 100 100 100 100 100 100 100 100 100 100 100 100 100 85 100 100 100 73 5 6 16 57 5
100 99 100 100 100 100 100 100 100 100 100 100 100 100 100 100 100 100 72 40 93 99 100 91 39 55 9 28 19 26 58 4
100 100 100 100 100 100 100 100 100 98 86 100 100 90 100 100 100 100 89 98 100 100 100 96 78 95 59 35 14 21 0 0
100 100 100 100 100 100 100 100 100 100 100 100 100 100 100 100 58 75 100 95 100 100 100 100 99 62 13 54 3 0 0 0
61 100 100 100 100 100 100 100 100 100 100 100 100 100 84 100 100 100 100 100 100 92 94 56 26 66 22 1 0 0 0 0
100 65 84 100 94 100 100 100 98 100 81 90 100 100 100 100 100 100 100 93 70 53 80 64 5 0 0 0 0 0 0 0
100 100 100 100 100 100 100 100 100 100 100 100 100 100 100 100 100 100 90 33 96 92 12 0 0 0 0 0 0 0 0 0
100 100 100 100 100 100 100 100 100 100 100 100 82 99 100 91 94 87 42 56 42 0 0 0 2 5 5 5 1 2 5 4
100 100 100 100 100 100 100 100 99 99 88 81 99 96 56 16 47 26 4 0 0 5 4 5 35 70 83 89 19 6 1 0
96 100 98 21 30 42 98 23 23 77 90 63 49 61 6 2 0 4 5 5 5 5 2 5 10 80 84 100 58 5 0 2
96 84 23 56 99 100 100 68 23 70 93 8 4 0 0 5 5 5 7 10 5 3 5 34 31 59 21 2 0 5 5 5
18 8 5 18 77 100 100 97 7 66 96 5 5 5 5 39 85 5 81 94 94 12 16 49 7 28 65 5 5 5 5 5
70 43 27 60 100 100 50 5 34 85 70 5 5 47 73 60 89 100 100 100 100 100 96 89 98 74 5 11 67 63 56 64
76 100 98 100 100 24 3 4 84 94 6 94 94 35 86 100 100 100 95 88 100 98 100 100 82 50 45 40 24 87 92 42

GFSFLT2_prec_cloud_060.txt.gz
Cloud_Cover
100 100 100 100 100 100 100 100 100 100 100 100 100 100 100 100 88 86 12 8 39 81 88 10 36 6 35 58 100 100 5 5
100 100 100 100 100 100 100 100 100 100 100 100 100 100 100 100 100 100 100 100 88 100 38 97 40 51 79 16 8 5 16 98
100 100 100 100 100 100 100 100 100 100 100 100 100 100 100 100 100 100 100 62 98 94 79 100 97 94 68 100 54 5 18 25
100 100 100 100 100 100 100 100 100 100 100 100 100 100 100 100 100 100 98 93 100 100 100 100 56 10 16 20 72 60 36 62
100 100 100 100 100 100 100 100 100 100 100 100 100 100 100 100 100 97 98 100 100 100 100 100 100 14 6 9 5 5 45 100
100 100 100 100 100 100 100 100 100 100 100 100 100 100 100 100 100 100 100 100 97 95 95 5 10 34 4 5 95 44 3 5
100 100 100 100 100 100 100 100 100 100 100 100 100 100 100 100 100 100 100 100 100 56 84 100 80 62 6 51 32 6 4 5
100 100 100 100 100 100 100 100 100 100 100 100 100 100 100 100 100 100 100 100 100 98 100 90 10 9 23 60 7 42 63 48
100 100 100 100 100 100 100 100 100 100 100 100 100 100 100 100 100 100 100 100 72 100 58 6 68 98 100 100 26 5 37 6
100 100 100 100 100 100 100 100 100 100 100 100 100 100 100 100 96 100 99 44 41 18 18 56 74 85 34 5 6 56 6 0
77 100 100 63 100 100 100 100 87 100 100 100 100 100 98 49 67 37 27 54 24 60 91 78 61 23 26 39 10 0 0 0
96 97 100 100 100 100 100 100 100 100 82 93 100 94 98 100 90 98 94 98 40 62 98 87 99 46 24 1 0 0 0 0
100 100 100 100 91 79 51 20 100 100 100 100 100 100 100 100 98 100 100 100 100 86 59 75 16 0 0 0 0 0 1 5
100 99 100 100 98 100 100 100 100 100 100 100 100 100 100 100 96 81 75 100 80 8 8 1 0 1 4 5 2 2 0 1
100 74 17 38 100 100 100 100 100 100 100 100 100 100 100 45 59 100 100 33 4 5 1 0 0 2 4 3 3 5 2 2
99 91 68 83 100 99 100 100 100 94 100 87 78 70 33 97 100 63 5 3 4 38 94 71 51 54 81 99 97 6 5 2
100 100 89 97 95 100 97 100 100 77 91 90 100 98 76 9 3 6 36 9 5 95 100 74 83 96 98 97 100 99 72 5
100 100 90 100 100 100 100 100 100 42 86 47 99 62 1 1 5 33 5 20 100 100 100 86 100 94 42 60 77 5 5 7
44 45 100 100 100 100 100 100 100 94 17 14 66 90 5 32 24 85 33 50 100 100 86 100 83 51 57 40 41 34 5 7
9 95 100 100 100 100 100 100 99 16 39 95 98 87 50 14 76 43 100 100 100 100 100 98 95 23 5 5 7 11 68 53

GFSFLT2_prec_cloud_063.txt.gz
Cloud_Cover
100 100 100 100 100 100 100 100 100 100 100 100 100 100 100 100 100 80 100 55 62 62 100 100 68 59 5 5 5 5 10 7
100 100 100 100 100 100 100 100 100 100 100 100 100 100 100 100 100 98 98 75 92 93 81 15 5 5 30 97 15 5 96 27
100 100 100 100 100 100 100 100 100 100 100 100 100 100 100 100 100 98 99 60 100 71 49 10 5 48 96 78 16 2 5 5
100 93 100 100 100 100 100 100 100 100 100 100 100 100 100 100 100 100 96 86 62 48 72 57 99 97 58 72 30 8 0 1
100 100 100 100 100 100 100 100 100 100 100 100 100 100 100 100 100 100 100 88 73 85 94 100 100 5 5 4 6 16 0 0
100 100 100 100 100 100 100 100 100 100 100 100 100 100 100 100 100 100 100 100 100 100 100 100 100 65 5 5 5 3 0 0
100 100 100 100 100 100 100 100 100 100 100 100 100 100 99 100 96 100 100 100 100 100 100 100 100 69 6 5 4 0 5 5
100 100 100 100 100 100 100 100 100 100 100 100 100 100 100 100 100 100 100 100 99 74 82 78 43 5 5 5 2 5 21 8
100 100 100 100 100 100 100 100 100 100 100 100 100 100 100 100 100 97 82 100 100 100 100 100 95 19 4 5 92 90 28 5
100 100 100 100 100 100 100 100 100 100 100 100 100 99 100 100 100 94 100 100 100 100 100 83 36 21 95 16 11 38 11 5
100 60 100 100 100 100 100 100 100 100 99 99 100 100 100 100 100 100 99 100 70 99 89 12 5 6 5 11 15 22 5 2
100 100 100 100 100 100 100 100 100 100 100 100 100 100 97 86 59 68 30 7 32 35 14 8 34 26 47 45 8 2 0 0
99 79 100 30 32 100 100 100 100 100 100 100 100 100 100 100 100 100 100 100 100 100 100 64 20 18 27 5 0 0 0 0
91 88 97 100 100 100 97 66 88 98 100 100 100 84 98 100 100 88 100 100 100 100 89 46 7 5 0 2 4 4 4 5
100 100 100 100 72 7 5 12 15 44 63 100 100 100 100 100 100 100 100 95 48 27 14 5 5 8 36 29 5 19 21 33
100 100 100 76 86 52 79 94 50 61 74 96 100 100 100 95 50 79 82 10 5 28 5 36 89 69 97 100 88 25 65 5
79 98 100 79 75 89 96 9 55 91 94 100 100 100 90 52 86 35 5 8 8 71 92 82 94 100 100 70 75 63 5 0
99 52 10 26 26 17 72 64 100 96 100 100 100 100 36 17 55 8 5 70 90 80 82 48 24 97 100 76 23 29 5 5
77 73 98 93 100 100 100 100 100 100 100 100 100 100 88 80 96 94 76 34 73 97 100 100 100 87 55 9 5 5 5 5
100 94 75 71 71 100 100 100 100 100 100 100 100 100 100 100 26 15 57 65 94 100 100 100 100 20 5 5 5 16 5 6

GFSFLT2_prec_cloud_066.txt.gz
Cloud_Cover
100 100 100 100 100 100 100 100 100 100 100 100 100 100 100 100 100 100 100 100 100 100 86 80 47 82 84 90 8 5 3 0
100 100 100 100 100 100 100 100 100 100 100 100 100 100 100 100 100 100 100 100 100 100 100 96 6 6 92 6 3 5 1 3
100 100 100 100 100 97 100 100 100 100 100 100 100 100 100 100 100 100 100 100 100 99 88 94 23 23 79 5 72 100 77 74
100 100 100 100 100 100 100 100 100 100 100 100 100 100 100 100 100 100 100 100 100 100 96 100 99 58 83 72 62 90 89 100
100 100 100 100 100 100 100 100 100 100 100 100 100 100 100 100 100 100 100 100 100 100 99 100 100 100 100 100 100 70 66 5
100 100 100 100 100 100 100 100 100 100 100 100 100 100 100 100 100 100 100 100 100 100 100 100 100 100 100 90 36 33 5 10
100 100 100 100 100 100 100 100 100 100 100 100 100 99 100 100 100 100 100 100 100 100 100 100 100 67 83 33 99 92 55 52
100 100 100 100 100 100 100 100 100 100 100 100 96 98 100 100 100 100 100 100 100 100 100 68 41 34 99 53 100 95 5 33
100 100 100 100 100 100 100 100 100 100 100 100 100 100 100 100 99 100 100 100 42 41 60 75 78 100 100 88 54 8 26 5
100 100 100 100 100 100 100 100 100 100 100 100 100 100 100 100 100 100 99 79 54 97 100 100 100 100 44 19 9 10 17 5
100 100 100 100 100 100 100 100 100 100 100 100 100 100 90 96 98 94 98 100 99 99 61 61 88 88 86 100 47 87 11 5
100 100 100 100 100 100 53 96 100 100 100 95 100 100 100 100 100 98 74 15 94 100 100 100 100 100 100 99 55 5 5 10
98 100 100 100 100 100 100 100 100 100 100 100 100 100 100 100 100 86 100 100 100 100 92 100 100 73 100 46 5 5 2 1
14 58 90 99 100 100 100 100 100 100 100 100 100 99 98 76 68 66 95 89 86 83 71 40 5 5 8 5 21 40 7 5
99 37 98 100 100 100 100 100 60 61 90 100 100 100 99 47 91 65 8 5 5 4 5 6 5 5 52 19 100 100 73 5
100 100 100 100 100 100 100 100 80 78 98 91 100 100 84 98 82 91 100 5 5 5 39 5 10 93 13 23 88 100 73 5
90 100 100 53 100 100 100 43 13 62 58 100 100 100 95 98 100 100 100 64 5 6 22 74 21 84 96 91 60 19 5 5
87 6 11 81 42 33 26 9 55 89 89 100 100 100 100 100 100 100 100 100 84 86 81 84 99 100 100 95 35 74 5 5
20 29 10 34 14 43 76 90 94 100 100 100 100 100 100 100 100 100 100 100 73 68 100 72 94 100 88 99 74 30 7 5
19 49 23 74 96 91 81 100 100 100 100 100 100 100 100 100 100 100 100 100 15 93 100 89 96 100 100 67 7 5 5 5

GFSFLT2_prec_cloud_069.txt.gz
Cloud_Cover
100 100 100 100 100 100 100 100 100 100 96 100 87 100 100 100 100 100 100 100 100 100 100 99 100 100 71 4 4 0 1 5
100 100 100 100 100 100 100 100 100 100 100 100 100 100 100 100 100 100 100 100 100 100 100 100 100 100 22 7 5 4 4 5
100 100 100 100 100 100 100 100 100 100 100 100 100 100 100 100 100 100 100 100 100 100 100 100 100 100 100 43 15 58 98 57
100 100 100 100 100 100 100 100 100 100 100 100 100 100 100 100 100 100 100 100 100 100 100 100 91 100 100 44 85 88 68 100
100 100 100 100 100 100 100 100 100 100 100 100 100 100 100 100 100 100 100 100 100 100 100 100 100 100 100 84 100 100 100 100
100 100 100 100 100 100 100 100 100 100 100 100 100 100 100 99 100 100 100 100 100 100 100 100 100 100 100 100 100 100 95 98
100 100 100 100 100 100 100 100 100 100 100 100 100 100 100 100 100 94 100 100 100 100 100 97 100 100 100 100 100 81 71 50
100 100 100 100 100 100 100 100 100 100 100 100 100 100 100 100 100 100 100 96 100 95 100 100 100 100 100 99 82 39 100 100
100 100 100 100 100 100 100 100 100 100 100 100 100 100 100 100 100 100 100 100 100 100 100 100 100 100 99 95 100 100 100 100
100 100 100 100 100 100 100 100 100 100 100 100 100 100 100 100 100 100 100 96 100 100 100 100 100 100 98 100 70 55 63 90
100 99 100 90 100 100 100 99 100 100 100 100 100 100 100 100 100 100 96 61 100 100 100 79 69 31 18 51 100 85 42 29
100 100 100 100 100 100 100 100 100 100 100 100 100 100 100 100 98 97 100 100 100 100 100 78 97 98 91 100 100 100 68 11
100 100 100 100 100 100 100 100 100 100 100 100 100 100 100 100 100 100 100 100 100 100 100 97 84 64 72 11 21 6 4 4
59 100 100 100 100 100 100 100 100 100 100 100 100 100 100 100 100 100 99 86 39 46 40 61 20 16 5 5 46 38 15 10
99 94 100 100 100 100 100 100 100 82 97 100 100 100 100 80 29 38 36 62 53 46 32 5 5 5 5 5 5 5 5 5
86 100 91 54 53 36 49 90 96 100 100 100 100 100 74 97 100 83 7 93 81 100 95 56 5 24 49 21 5 5 54 5
15 100 89 87 92 35 85 100 100 100 100 100 100 94 59 95 91 93 42 100 100 100 100 17 100 100 100 94 100 57 44 25
100 94 80 90 44 76 100 98 85 79 85 90 100 100 100 100 96 100 100 100 100 100 100 100 98 100 100 91 100 72 96 93
38 44 4 35 64 20 16 68 41 100 94 100 100 100 100 100 100 100 100 100 100 100 100 100 100 100 100 98 100 100 100 100
5 5 81 96 100 100 96 79 51 68 100 100 88 100 100 100 100 100 100 100 100 100 100 100 100 100 98 100 100 100 100 100

GFSFLT2_prec_cloud_072.txt.gz
Cloud_Cover
100 100 100 100 100 100 79 77 96 94 93 95 77 67 98 100 100 100 100 100 100 100 100 99 100 94 100 68 73 62 64 5
100 100 100 100 100 100 100 100 100 100 98 92 100 100 100 100 100 100 100 100 100 100 92 100 100 100 100 99 100 23 4 26
100 100 100 100 100 100 100 100 100 100 100 100 100 100 100 100 100 100 100 100 100 100 100 100 100 100 100 100 88 34 70 100
100 100 100 100 100 100 100 100 100 100 100 100 100 100 100 100 100 100 100 100 100 100 100 100 100 100 100 100 100 100 100 100
100 100 100 100 100 100 100 100 100 100 100 100 100 100 100 100 100 100 100 100 100 95 97 100 100 100 100 100 100 100 100 93
100 100 100 100 100 100 100 100 100 100 100 100 100 100 100 100 100 100 100 100 70 92 50 70 100 100 100 100 99 98 85 65
100 100 100 100 100 100 100 100 100 100 100 100 100 100 100 100 100 100 100 96 94 73 97 93 94 100 100 100 100 75 94 88
100 100 100 100 100 100 100 100 100 100 100 100 100 100 100 100 100 100 100 100 100 100 6 5 48 100 100 100 63 99 100 100
100 100 100 100 100 100 100 100 100 100 100 100 100 100 100 100 100 100 100 100 100 77 40 98 100 100 100 96 97 100 100 100
100 100 100 100 100 100 100 100 97 100 100 100 100 100 100 100 100 100 100 100 100 100 100 99 99 92 84 100 100 100 100 48
100 100 100 100 100 100 100 100 100 100 100 100 100 100 100 100 100 100 100 100 95 100 100 100 100 99 100 100 100 100 100 94
100 100 100 100 100 100 100 100 100 100 100 100 100 100 100 100 100 100 100 100 100 100 100 100 100 100 100 100 100 100 85 78
100 100 100 100 100 100 100 100 100 100 100 100 100 100 100 100 66 90 100 100 100 100 100 100 100 94 99 95 71 94 38 17
94 100 100 100 97 100 100 100 99 100 100 100 100 100 100 100 100 100 100 100 100 100 95 97 86 38 63 79 71 64 70 41
100 100 100 97 72 5 65 100 100 100 100 100 100 100 100 100 100 96 45 96 82 40 12 72 87 84 63 7 6 13 49 29
22 32 33 77 100 98 10 100 100 100 100 100 100 100 100 91 96 89 92 95 100 64 93 97 80 44 100 100 100 100 100 100
100 92 70 87 84 100 77 70 94 87 61 100 95 72 100 100 81 98 96 100 100 100 100 100 100 36 99 100 100 100 100 100
100 22 5 99 100 100 100 100 100 100 100 51 100 97 99 100 100 100 100 95 93 97 100 100 100 98 100 100 100 100 100 100
100 100 97 100 100 100 100 100 100 95 100 99 100 100 89 51 72 90 100 100 100 100 100 100 100 100 100 100 96 100 100 100
100 100 14 9 86 100 57 32 5 20 91 39 81 100 99 100 87 100 100 100 100 100 100 100 100 100 100 98 100 100 100 100

GFSFLT2_prec_cloud_075.txt.gz
Cloud_Cover
100 100 100 100 100 100 100 100 84 100 100 17 5 6 6 7 11 73 99 100 100 100 100 100 52 51 64 6 99 100 100 10
100 100 100 100 100 100 100 100 99 38 100 100 100 100 100 100 47 100 100 100 100 100 100 99 77 5 60 100 100 97 36 6
100 100 100 100 100 100 100 100 100 100 100 100 100 100 100 100 100 100 100 100 100 100 100 99 100 100 100 80 100 88 100 100
100 100 100 100 100 100 100 100 100 100 100 100 100 100 100 100 100 100 100 100 100 100 100 79 83 92 100 100 100 100 100 100
100 100 100 100 100 100 100 100 100 100 93 100 100 100 100 100 100 100 96 84 100 100 100 93 34 29 60 100 100 100 100 100
100 100 100 100 100 100 100 100 100 100 100 100 98 100 100 100 100 100 100 98 99 91 98 94 53 76 58 95 86 78 20 59
100 100 100 100 100 100 100 100 100 100 100 100 62 100 99 100 100 100 100 75 86 55 6 5 27 8 5 9 6 65 23 55
100 100 100 100 100 100 100 100 100 100 100 100 100 100 100 100 100 100 100 100 97 62 92 66 74 43 70 90 83 99 100 69
100 100 100 100 100 100 100 100 100 100 100 100 100 93 100 100 100 100 100 100 95 46 89 82 98 100 100 100 64 50 20 51
100 100 100 100 100 100 100 100 100 100 100 100 100 100 100 100 100 100 100 100 100 100 100 100 100 100 99 100 96 100 100 100
100 100 100 100 100 100 100 100 100 100 75 100 100 100 100 100 100 100 100 100 100 100 100 100 100 100 100 100 100 100 100 100
100 100 100 100 100 100 100 90 100 100 100 100 97 100 100 100 100 100 100 100 100 100 100 100 100 100 100 100 100 100 100 100
100 100 100 100 100 100 100 100 100 100 100 100 100 97 100 100 100 100 98 92 100 100 100 100 100 100 100 100 100 100 88 36
100 100 100 100 100 100 100 82 77 100 100 100 100 100 100 100 100 100 90 100 100 100 100 100 100 100 100 100 94 96 100 100
100 100 100 100 100 100 100 100 96 99 100 100 100 100 100 100 100 100 100 100 100 100 100 97 99 98 97 96 100 75 26 88
100 100 100 100 100 100 100 100 100 96 100 100 100 100 100 100 100 100 100 100 100 100 86 100 99 89 100 94 34 61 49 38
56 96 100 100 100 100 87 30 55 96 98 100 100 90 100 100 59 99 100 100 100 100 100 100 100 100 100 100 100 84 90 10
90 48 61 92 30 12 1 5 88 52 81 5 43 64 88 100 97 82 96 92 97 67 100 95 87 100 100 100 100 100 100 99
100 100 92 61 7 26 5 5 4 5 5 90 9 33 60 100 100 100 94 100 100 91 100 100 100 100 100 100 100 100 100 100
0 48 98 100 51 57 97 21 8 8 75 5 5 5 71 100 100 100 100 100 100 100 100 100 100 100 100 100 100 100 100 100

GFSFLT2_prec_cloud_081.txt.gz
Cloud_Cover
100 100 100 100 100 100 100 100 100 100 100 100 100 100 88 90 100 100 28 14 11 36 82 27 19 5 30 6 62 55 5 18
100 100 100 100 100 100 100 100 100 100 100 94 100 100 62 100 5 5 5 10 5 59 100 100 80 5 5 5 5 5 5 54
100 100 100 100 100 100 100 100 100 100 100 100 100 100 98 100 24 9 47 35 6 77 100 100 100 33 97 25 5 5 42 5
100 100 100 100 100 100 100 100 100 100 100 100 100 100 98 93 92 100 98 100 71 98 95 60 100 95 78 36 53 94 84 52
87 100 100 100 100 100 100 100 100 100 100 100 100 100 100 89 100 96 88 83 56 42 98 10 5 5 5 5 5 5 5 5
100 100 100 100 100 100 100 100 100 100 100 100 100 100 100 72 76 59 56 21 69 71 80 100 57 5 5 4 5 4 4 5
100 100 100 100 100 100 100 100 100 100 100 100 100 100 100 100 100 86 97 85 80 75 66 100 99 10 5 57 87 27 5 6
100 100 100 100 100 100 100 100 100 100 100 100 100 100 100 100 100 100 100 80 93 80 99 100 100 98 74 16 61 67 28 100
100 100 100 100 100 100 100 100 100 100 100 100 100 100 100 100 100 97 100 80 7 46 63 100 83 100 94 98 90 88 92 100
100 100 100 100 100 100 100 100 100 100 100 100 100 100 100 100 100 100 100 90 99 95 90 100 94 100 100 100 100 100 100 100
100 100 100 100 100 100 100 100 100 100 100 100 100 100 100 100 100 100 100 100 99 100 96 96 99 100 100 100 100 100 99 97
100 100 100 100 100 100 100 100 100 100 100 100 100 100 100 100 100 100 100 98 100 97 85 93 89 98 100 100 100 100 100 100
100 100 100 100 100 100 100 100 100 100 100 100 100 100 100 100 100 100 54 97 100 100 100 100 100 100 100 100 100 100 100 100
100 100 100 100 100 100 100 100 100 100 100 100 100 100 100 100 100 100 100 100 100 100 100 100 100 97 100 100 100 100 100 100
100 100 100 100 100 100 100 100 100 100 100 100 100 100 100 100 100 100 100 100 100 100 100 100 100 97 95 100 100 100 100 78
100 100 100 100 100 100 100 96 100 100 100 100 100 100 100 100 100 98 100 91 100 100 99 100 99 73 100 99 100 100 100 97
40 96 98 100 100 100 100 100 100 100 100 99 100 100 100 100 100 100 96 71 49 92 31 95 69 97 100 100 100 100 100 100
100 97 98 100 100 100 100 100 100 100 94 61 34 55 91 88 96 64 66 54 82 89 97 100 100 88 100 100 100 97 93 100
39 87 86 91 95 95 100 100 100 100 100 100 100 100 100 100 100 99 86 91 100 97 96 100 100 89 100 91 96 100 100 100
5 6 5 4 5 5 19 85 99 100 100 100 100 100 100 100 100 100 100 94 98 100 100 100 100 100 46 100 100 100 100 96